Time,TemperatureF,DewpointF,PressureIn,WindDirection,WindDirectionDegrees,WindSpeedMPH,WindSpeedGustMPH,Humidity,HourlyPrecipIn,Conditions,Clouds,dailyrainin,SoftwareType,DateUTC
2013-10-07 00:13:00,66.9,66.0,29.93,East,88,0.0,4.0,95,0.00,,,0.00,weatherlink.com 1.10,2013-10-07 04:13:00,
2013-10-07 00:28:00,66.5,65.0,29.92,SE,146,0.0,1.0,95,0.00,,,0.00,weatherlink.com 1.10,2013-10-07 04:28:00,
2013-10-07 00:43:00,66.5,65.0,29.92,SE,139,1.0,2.0,96,0.00,,,0.00,weatherlink.com 1.10,2013-10-07 04:43:00,
2013-10-07 00:58:00,66.5,65.0,29.91,SSE,163,2.0,3.0,96,0.00,,,0.00,weatherlink.com 1.10,2013-10-07 04:58:00,
2013-10-07 01:13:00,66.8,66.0,29.91,East,84,2.0,6.0,96,0.00,,,0.00,weatherlink.com 1.10,2013-10-07 05:13:00,
2013-10-07 01:28:00,67.0,66.0,29.91,ENE,77,2.0,6.0,96,0.00,,,0.00,weatherlink.com 1.10,2013-10-07 05:28:00,
2013-10-07 01:43:00,67.4,66.0,29.91,ESE,117,2.0,5.0,95,0.00,,,0.00,weatherlink.com 1.10,2013-10-07 05:43:00,
2013-10-07 01:58:00,-999.0,-99.9,29.91,North,-999,-999.0,-999.0,-999,0.00,,,0.00,weatherlink.com 1.10,2013-10-07 05:58:00,
2013-10-07 02:13:00,-999.0,-99.9,29.91,North,-999,-999.0,-999.0,-999,0.00,,,0.00,weatherlink.com 1.10,2013-10-07 06:13:00,
2013-10-07 02:28:00,-999.0,-99.9,29.90,North,-999,-999.0,-999.0,-999,0.00,,,0.00,weatherlink.com 1.10,2013-10-07 06:28:00,
2013-10-07 02:43:00,-999.0,-99.9,29.90,North,-999,-999.0,-999.0,-999,0.00,,,0.00,weatherlink.com 1.10,2013-10-07 06:43:00,
2013-10-07 02:58:00,-999.0,-99.9,29.89,North,-999,-999.0,-999.0,-999,0.00,,,0.00,weatherlink.com 1.10,2013-10-07 06:58:00,
2013-10-07 03:13:00,-999.0,-99.9,29.88,North,-999,-999.0,-999.0,-999,0.00,,,0.00,weatherlink.com 1.10,2013-10-07 07:13:00,
2013-10-07 03:29:00,-999.0,-99.9,29.88,North,-999,-999.0,-999.0,-999,0.00,,,0.00,weatherlink.com 1.10,2013-10-07 07:29:00,
2013-10-07 03:43:00,-999.0,-99.9,29.87,North,-999,-999.0,-999.0,-999,0.00,,,0.00,weatherlink.com 1.10,2013-10-07 07:43:00,
2013-10-07 03:59:00,-999.0,-99.9,29.87,North,-999,-999.0,-999.0,-999,0.00,,,0.00,weatherlink.com 1.10,2013-10-07 07:59:00,
2013-10-07 04:14:00,-999.0,-99.9,29.87,North,-999,-999.0,-999.0,-999,0.00,,,0.00,weatherlink.com 1.10,2013-10-07 08:14:00,
2013-10-07 04:29:00,-999.0,-99.9,29.86,North,-999,-999.0,-999.0,-999,0.00,,,0.00,weatherlink.com 1.10,2013-10-07 08:29:00,
2013-10-07 04:44:00,-999.0,-99.9,29.86,North,-999,-999.0,-999.0,-999,0.00,,,0.00,weatherlink.com 1.10,2013-10-07 08:44:00,
2013-10-07 04:59:00,-999.0,-99.9,29.86,North,-999,-999.0,-999.0,-999,0.00,,,0.00,weatherlink.com 1.10,2013-10-07 08:59:00,
2013-10-07 05:14:00,-999.0,-99.9,29.86,North,-999,-999.0,-999.0,-999,0.00,,,0.00,weatherlink.com 1.10,2013-10-07 09:14:00,
2013-10-07 05:29:00,-999.0,-99.9,29.86,North,-999,-999.0,-999.0,-999,0.00,,,0.00,weatherlink.com 1.10,2013-10-07 09:29:00,
2013-10-07 05:44:00,-999.0,-99.9,29.85,North,-999,-999.0,-999.0,-999,0.00,,,0.00,weatherlink.com 1.10,2013-10-07 09:44:00,
2013-10-07 05:59:00,-999.0,-99.9,29.85,North,-999,-999.0,-999.0,-999,0.00,,,0.00,weatherlink.com 1.10,2013-10-07 09:59:00,
2013-10-07 06:14:00,-999.0,-99.9,29.84,North,-999,-999.0,-999.0,-999,0.00,,,0.00,weatherlink.com 1.10,2013-10-07 10:14:00,
2013-10-07 06:29:00,-999.0,-99.9,29.84,North,-999,-999.0,-999.0,-999,0.00,,,0.00,weatherlink.com 1.10,2013-10-07 10:29:00,
2013-10-07 06:44:00,-999.0,-99.9,29.84,North,-999,-999.0,-999.0,-999,0.00,,,0.00,weatherlink.com 1.10,2013-10-07 10:44:00,
2013-10-07 06:59:00,-999.0,-99.9,29.83,North,-999,-999.0,-999.0,-999,0.00,,,0.00,weatherlink.com 1.10,2013-10-07 10:59:00,
2013-10-07 07:14:00,-999.0,-99.9,29.83,North,-999,-999.0,-999.0,-999,0.00,,,0.00,weatherlink.com 1.10,2013-10-07 11:14:00,
2013-10-07 07:30:00,-999.0,-99.9,29.82,North,-999,-999.0,-999.0,-999,0.00,,,0.00,weatherlink.com 1.10,2013-10-07 11:30:00,
2013-10-07 07:45:00,-999.0,-99.9,29.82,North,-999,-999.0,-999.0,-999,0.00,,,0.00,weatherlink.com 1.10,2013-10-07 11:45:00,
2013-10-07 08:00:00,-999.0,-99.9,29.82,North,-999,-999.0,-999.0,-999,0.00,,,0.00,weatherlink.com 1.10,2013-10-07 12:00:00,
2013-10-07 08:15:00,69.0,67.0,29.82,SE,127,3.0,8.0,94,0.00,,,0.00,weatherlink.com 1.10,2013-10-07 12:15:00,
2013-10-07 08:30:00,69.2,68.0,29.81,East,92,3.0,5.0,94,0.00,,,0.00,weatherlink.com 1.10,2013-10-07 12:30:00,
2013-10-07 08:45:00,69.5,68.0,29.80,ESE,107,2.0,10.0,93,0.00,,,0.00,weatherlink.com 1.10,2013-10-07 12:45:00,
2013-10-07 09:00:00,70.0,68.0,29.80,SE,139,4.0,10.0,93,0.00,,,0.00,weatherlink.com 1.10,2013-10-07 13:00:00,
2013-10-07 09:15:00,70.4,68.0,29.79,East,91,3.0,9.0,92,0.00,,,0.00,weatherlink.com 1.10,2013-10-07 13:15:00,
2013-10-07 09:30:00,70.9,68.0,29.79,ESE,121,8.0,9.0,91,0.00,,,0.00,weatherlink.com 1.10,2013-10-07 13:30:00,
2013-10-07 10:00:00,71.3,69.0,29.77,SE,136,4.0,11.0,91,0.00,,,0.00,weatherlink.com 1.10,2013-10-07 14:00:00,
2013-10-07 10:15:00,70.2,69.0,29.77,East,84,4.0,10.0,94,0.00,,,0.00,weatherlink.com 1.10,2013-10-07 14:15:00,
2013-10-07 10:30:00,69.9,69.0,29.76,SE,138,4.0,7.0,96,0.00,,,0.00,weatherlink.com 1.10,2013-10-07 14:30:00,
2013-10-07 10:45:00,70.0,69.0,29.76,SE,135,3.0,8.0,96,0.00,,,0.00,weatherlink.com 1.10,2013-10-07 14:45:00,
2013-10-07 11:00:00,70.0,69.0,29.75,SE,133,5.0,11.0,97,0.00,,,0.00,weatherlink.com 1.10,2013-10-07 15:00:00,
2013-10-07 11:15:00,70.0,69.0,29.75,SE,134,3.0,14.0,97,0.00,,,0.00,weatherlink.com 1.10,2013-10-07 15:15:00,
2013-10-07 11:30:00,70.2,69.0,29.74,SE,127,9.0,16.0,97,0.00,,,0.00,weatherlink.com 1.10,2013-10-07 15:30:00,
2013-10-07 11:45:00,70.6,70.0,29.73,ENE,64,4.0,12.0,97,0.00,,,0.00,weatherlink.com 1.10,2013-10-07 15:45:00,
2013-10-07 12:00:00,70.7,70.0,29.73,ESE,110,9.0,12.0,96,0.00,,,0.00,weatherlink.com 1.10,2013-10-07 16:00:00,
2013-10-07 12:15:00,71.2,70.0,29.72,SE,141,8.0,12.0,96,0.00,,,0.00,weatherlink.com 1.10,2013-10-07 16:15:00,
2013-10-07 12:30:00,71.6,70.0,29.71,East,89,10.0,15.0,96,0.00,,,0.00,weatherlink.com 1.10,2013-10-07 16:30:00,
2013-10-07 12:45:00,72.3,71.0,29.70,East,89,4.0,11.0,94,0.00,,,0.00,weatherlink.com 1.10,2013-10-07 16:45:00,
2013-10-07 13:00:00,73.3,71.0,29.69,SE,142,5.0,17.0,93,0.00,,,0.00,weatherlink.com 1.10,2013-10-07 17:00:00,
2013-10-07 13:15:00,74.2,71.0,29.67,SSE,150,7.0,15.0,90,0.00,,,0.00,weatherlink.com 1.10,2013-10-07 17:15:00,
2013-10-07 13:31:00,74.6,71.0,29.67,South,188,12.0,28.0,88,0.00,,,0.00,weatherlink.com 1.10,2013-10-07 17:31:00,
2013-10-07 13:46:00,74.6,71.0,29.66,ESE,110,12.0,20.0,89,0.00,,,0.00,weatherlink.com 1.10,2013-10-07 17:46:00,
2013-10-07 14:01:00,74.4,71.0,29.66,SE,132,6.0,13.0,89,0.00,,,0.00,weatherlink.com 1.10,2013-10-07 18:01:00,
2013-10-07 14:16:00,72.8,70.0,29.65,SSE,160,4.0,16.0,92,0.00,,,0.00,weatherlink.com 1.10,2013-10-07 18:16:00,
2013-10-07 14:31:00,71.8,71.0,29.66,ESE,120,5.0,18.0,96,0.00,,,0.00,weatherlink.com 1.10,2013-10-07 18:31:00,
2013-10-07 14:46:00,67.8,65.0,29.70,ESE,114,6.0,24.0,91,0.00,,,0.00,weatherlink.com 1.10,2013-10-07 18:46:00,
2013-10-07 15:01:00,65.9,64.0,29.71,East,98,2.0,7.0,94,0.00,,,0.00,weatherlink.com 1.10,2013-10-07 19:01:00,
2013-10-07 15:16:00,65.6,64.0,29.72,ESE,120,4.0,5.0,95,0.00,,,0.00,weatherlink.com 1.10,2013-10-07 19:16:00,
2013-10-07 15:31:00,65.4,64.0,29.72,SE,133,1.0,5.0,96,0.00,,,0.00,weatherlink.com 1.10,2013-10-07 19:31:00,
2013-10-07 15:46:00,65.4,65.0,29.72,ESE,120,2.0,3.0,97,0.00,,,0.00,weatherlink.com 1.10,2013-10-07 19:46:00,
2013-10-07 16:01:00,65.5,65.0,29.73,SE,124,2.0,3.0,97,0.00,,,0.00,weatherlink.com 1.10,2013-10-07 20:01:00,
2013-10-07 16:16:00,65.9,65.0,29.73,SSE,153,4.0,4.0,97,0.00,,,0.00,weatherlink.com 1.10,2013-10-07 20:16:00,
2013-10-07 16:31:00,65.7,65.0,29.71,SE,132,1.0,4.0,97,0.00,,,0.00,weatherlink.com 1.10,2013-10-07 20:31:00,
2013-10-07 16:46:00,64.1,63.0,29.77,West,262,3.0,9.0,95,0.00,,,0.00,weatherlink.com 1.10,2013-10-07 20:46:00,
2013-10-07 17:01:00,61.2,59.0,29.76,West,279,3.0,15.0,93,0.00,,,0.00,weatherlink.com 1.10,2013-10-07 21:01:00,
2013-10-07 17:16:00,60.1,59.0,29.78,NW,310,2.0,8.0,95,0.00,,,0.00,weatherlink.com 1.10,2013-10-07 21:16:00,
2013-10-07 17:31:00,59.5,58.0,29.79,SW,228,1.0,2.0,95,0.00,,,0.00,weatherlink.com 1.10,2013-10-07 21:31:00,
2013-10-07 17:46:00,58.9,58.0,29.79,SW,224,2.0,4.0,95,0.00,,,0.00,weatherlink.com 1.10,2013-10-07 21:46:00,
2013-10-07 18:01:00,58.8,57.0,29.80,SSE,156,0.0,2.0,95,0.00,,,0.00,weatherlink.com 1.10,2013-10-07 22:01:00,
2013-10-07 18:16:00,58.9,58.0,29.81,SSE,156,0.0,1.0,95,0.00,,,0.00,weatherlink.com 1.10,2013-10-07 22:16:00,
2013-10-07 18:31:00,58.6,57.0,29.81,West,264,0.0,2.0,95,0.00,,,0.00,weatherlink.com 1.10,2013-10-07 22:31:00,
2013-10-07 18:46:00,58.4,57.0,29.82,WSW,238,0.0,2.0,94,0.00,,,0.00,weatherlink.com 1.10,2013-10-07 22:46:00,
2013-10-07 19:01:00,58.3,57.0,29.82,South,172,0.0,2.0,95,0.00,,,0.00,weatherlink.com 1.10,2013-10-07 23:01:00,
2013-10-07 19:16:00,58.2,57.0,29.82,West,278,0.0,3.0,94,0.00,,,0.00,weatherlink.com 1.10,2013-10-07 23:16:00,
2013-10-07 19:31:00,58.3,57.0,29.83,West,263,0.0,2.0,94,0.00,,,0.00,weatherlink.com 1.10,2013-10-07 23:31:00,
2013-10-07 19:46:00,58.3,56.0,29.83,SW,228,0.0,0.0,93,0.00,,,0.00,weatherlink.com 1.10,2013-10-07 23:46:00,
2013-10-07 20:01:00,58.4,56.0,29.84,WSW,250,0.0,1.0,92,0.00,,,0.00,weatherlink.com 1.10,2013-10-08 00:01:00,
2013-10-07 20:16:00,58.4,56.0,29.85,West,264,0.0,2.0,92,0.00,,,0.00,weatherlink.com 1.10,2013-10-08 00:16:00,
2013-10-07 20:31:00,58.2,56.0,29.85,West,259,0.0,1.0,92,0.00,,,0.00,weatherlink.com 1.10,2013-10-08 00:31:00,
2013-10-07 20:46:00,57.9,56.0,29.85,WSW,249,0.0,2.0,92,0.00,,,0.00,weatherlink.com 1.10,2013-10-08 00:46:00,
2013-10-07 21:01:00,57.5,55.0,29.86,WSW,249,0.0,1.0,92,0.00,,,0.00,weatherlink.com 1.10,2013-10-08 01:01:00,
2013-10-07 21:16:00,57.4,55.0,29.86,West,259,0.0,1.0,93,0.00,,,0.00,weatherlink.com 1.10,2013-10-08 01:16:00,
2013-10-07 21:32:00,57.3,55.0,29.86,SSW,206,0.0,1.0,91,0.00,,,0.00,weatherlink.com 1.10,2013-10-08 01:32:00,
2013-10-07 21:47:00,57.4,54.0,29.86,SSW,206,4.0,5.0,89,0.00,,,0.00,weatherlink.com 1.10,2013-10-08 01:47:00,
2013-10-07 22:02:00,57.6,54.0,29.87,SW,232,1.0,4.0,86,0.00,,,0.00,weatherlink.com 1.10,2013-10-08 02:02:00,
2013-10-07 22:17:00,57.8,52.0,29.86,WNW,293,3.0,8.0,82,0.00,,,0.00,weatherlink.com 1.10,2013-10-08 02:17:00,
2013-10-07 22:32:00,57.9,51.0,29.87,West,269,2.0,6.0,78,0.00,,,0.00,weatherlink.com 1.10,2013-10-08 02:32:00,
2013-10-07 22:47:00,57.8,50.0,29.87,WNW,287,6.0,7.0,75,0.00,,,0.00,weatherlink.com 1.10,2013-10-08 02:47:00,
2013-10-07 23:02:00,57.6,49.0,29.88,West,264,2.0,6.0,74,0.00,,,0.00,weatherlink.com 1.10,2013-10-08 03:02:00,
2013-10-07 23:17:00,57.2,49.0,29.89,WNW,300,2.0,5.0,74,0.00,,,0.00,weatherlink.com 1.10,2013-10-08 03:17:00,
2013-10-07 23:32:00,56.8,49.0,29.90,SSE,160,2.0,3.0,74,0.00,,,0.00,weatherlink.com 1.10,2013-10-08 03:32:00,
2013-10-07 23:47:00,55.4,49.0,29.91,SE,134,1.0,2.0,79,0.00,,,0.00,weatherlink.com 1.10,2013-10-08 03:47:00,